FW0655 Weather Reports


Display with metric or nautical units.
time (UTC)temp
F
wind
direction
speed
MPH
gust
MPH
rain 1hr
in
rain 24hr
in
rain mn
in
humidity
%
barometer
mb
20260902211527 73 237 3.0 8.0 0.00 0.30 0.30 86 1014.6
20260902210033 74 189 2.0 6.0 0.00 0.30 0.30 86 1014.7
20260902204537 74 189 3.0 10.0 0.00 0.30 0.30 85 1014.8
20260902203025 74 238 6.0 13.0 0.00 0.30 0.30 86 1014.2
20260902201529 74 194 4.0 11.0 0.00 0.30 0.30 86 1014.1
20260902200021 74 213 4.0 10.0 0.00 0.30 0.30 86 1014.7
20260902194519 74 205 7.0 16.0 0.00 0.30 0.30 87 1014.9
20260902193017 74 144 3.0 8.0 0.00 0.30 0.30 88 1015.1
20260902191518 74 226 6.0 10.0 0.00 0.30 0.30 89 1015.3
20260902190007 73 206 4.0 11.0 0.00 0.30 0.30 91 1015.2
20260902184504 72 188 5.0 10.0 0.00 0.30 0.30 92 1015.2
20260902183003 72 30 1.0 4.0 0.00 0.30 0.30 93 1015.1
20260902181502 71 30 2.0 4.0 0.00 0.30 0.30 93 1015.2
20260902180004 71 30 2.0 6.0 0.00 0.30 0.30 93 1015.4
20260902174608 72 30 2.0 8.0 0.00 0.30 0.30 93 1015.9
20260902173000 71 32 3.0 6.0 0.00 0.30 0.30 94 1016.1
20260902171609 71 32 3.0 6.0 0.00 0.30 0.30 94 1016.4
20260902164602 71 36 2.0 8.0 0.00 0.30 0.30 93 1016.4
20260902163059 72 26 2.0 5.0 0.01 0.30 0.30 94 1016.5
20260902161601 72 10 1.0 5.0 0.02 0.30 0.30 94 1016.0
20260902160152 71 340 2.0 4.0 0.04 0.30 0.30 94 1016.0
20260902154609 71 214 0.0 5.0 0.05 0.30 0.30 94 1016.1
20260902153048 71 132 1.0 2.0 0.04 0.28 0.28 94 1016.2
20260902151551 71 132 0.0 2.0 0.21 0.28 0.28 94 1016.4
20260902150046 71 132 0.0 3.0 0.26 0.26 0.26 94 1016.4
20260902144550 70 13 1.0 4.0 0.25 0.28 0.25 94 1016.4
20260902143046 71 155 2.0 5.0 0.25 0.28 0.25 94 1016.0
20260902141544 71 257 1.0 3.0 0.07 0.11 0.07 94 1016.3
20260902140044 71 189 0.0 3.0 0.00 0.04 0.00 94 1016.3
20260902134543 71 188 1.0 2.0 0.00 0.27 0.00 94 1016.7
20260902133050 71 189 1.0 4.0 0.00 0.27 0.00 94 1016.5
20260902131544 70 60 2.0 5.0 0.00 0.27 0.00 94 1016.0
20260902130038 70 56 0.0 2.0 0.00 0.27 0.00 94 1016.2
20260902124538 69 56 0.0 2.0 0.00 0.84 0.00 94 1016.2
20260902123036 69 56 0.0 1.0 0.00 0.84 0.00 94 1016.1
20260902121533 68 56 1.0 4.0 0.00 0.84 0.00 94 1015.8
20260902120033 68 56 0.0 4.0 0.00 0.84 0.00 94 1015.7
20260902114533 68 56 0.0 1.0 0.00 0.86 0.00 94 1015.5
20260902113037 67 56 0.0 2.0 0.00 0.86 0.00 94 1015.6
20260902111531 66 56 0.0 2.0 0.00 0.86 0.00 94 1015.3
20260902110031 66 56 0.0 0.0 0.00 0.86 0.00 94 1015.3
20260902104531 66 56 0.0 2.0 0.00 0.86 0.00 93 1015.4
20260902103042 66 56 0.0 0.0 0.00 0.86 0.00 94 1015.7
20260902101541 66 56 0.0 2.0 0.00 0.86 0.00 94 1015.7
20260902100029 66 56 0.0 1.0 0.00 0.86 0.00 93 1015.8
20260902094530 66 56 0.0 2.0 0.00 0.86 0.00 93 1015.7
20260902093033 66 56 0.0 1.0 0.00 0.86 0.00 93 1015.6
20260902091536 66 56 0.0 1.0 0.00 0.86 0.00 93 1015.6
20260902090027 66 56 0.0 0.0 0.00 0.86 0.00 93 1015.7
20260902084544 66 56 0.0 1.0 0.00 0.87 0.00 93 1015.8
20260902083038 66 56 1.0 3.0 0.00 0.87 0.00 93 1015.8
20260902081524 66 56 0.0 2.0 0.00 0.87 0.00 93 1015.6
20260902080023 67 56 0.0 0.0 0.00 0.87 0.00 93 1015.2
20260902074523 67 56 0.0 1.0 0.00 0.90 0.00 93 1015.4
20260902073020 67 56 0.0 2.0 0.00 0.90 0.00 93 1015.4
20260902071523 67 56 1.0 2.0 0.00 0.90 0.00 93 1015.3
20260902070021 68 56 0.0 2.0 0.00 0.90 0.00 93 1015.5
20260902064517 68 56 0.0 2.0 0.00 0.90 0.00 93 1015.8
20260902063022 68 56 1.0 2.0 0.00 0.90 0.00 92 1015.6
20260902061534 68 56 0.0 1.0 0.00 0.90 0.00 92 1015.7
20260902060016 68 56 0.0 1.0 0.00 0.90 0.00 92 1015.7
20260902054511 68 56 0.0 0.0 0.00 0.90 0.00 92 1015.5
20260902053016 69 56 0.0 2.0 0.00 0.90 0.00 92 1015.4
20260902051508 69 56 0.0 2.0 0.00 0.90 0.00 92 1015.4
20260902050008 70 56 0.0 2.0 0.00 0.90 0.00 92 1015.4
20260902044505 70 56 0.0 2.0 0.00 0.90 0.00 92 1015.6
20260902043004 70 56 2.0 3.0 0.00 0.90 0.00 92 1015.4
20260902041601 71 55 0.0 3.0 0.00 0.90 0.00 92 1015.1
20260902040110 71 55 0.0 0.0 0.00 0.90 0.00 92 1014.8
20260902034605 71 55 0.0 0.0 0.00 0.90 0.90 92 1014.9
20260902033107 71 55 0.0 1.0 0.00 0.90 0.90 91 1014.8
20260902031556 71 55 0.0 2.0 0.00 0.90 0.90 91 1014.6
20260902030056 71 55 0.0 2.0 0.00 0.90 0.90 91 1014.6
20260902024608 72 55 0.0 0.0 0.00 0.90 0.90 91 1014.3
20260902023104 72 55 0.0 2.0 0.00 0.90 0.90 90 1014.4
20260902021557 73 55 0.0 1.0 0.00 0.90 0.90 90 1014.5
20260902020107 73 55 0.0 1.0 0.00 0.90 0.90 90 1014.5
20260902014555 73 55 0.0 2.0 0.00 0.91 0.90 90 1014.4
20260902013056 73 55 0.0 3.0 0.00 0.91 0.90 90 1014.2
20260902011553 74 55 2.0 3.0 0.00 0.91 0.90 90 1014.0
20260902010054 74 55 0.0 3.0 0.00 0.91 0.90 89 1014.2
20260902004552 75 30 2.0 5.0 0.00 0.92 0.90 88 1013.9
20260902003052 75 29 0.0 3.0 0.00 0.92 0.90 88 1013.6
20260902001552 76 29 0.0 1.0 0.00 0.92 0.90 87 1013.3
20260902000053 76 29 0.0 1.0 0.00 0.92 0.90 86 1013.1
20260901234549 77 29 0.0 1.0 0.00 0.92 0.90 85 1013.2
20260901233050 78 29 0.0 2.0 0.00 0.92 0.90 83 1013.4
20260901231549 79 29 0.0 2.0 0.00 0.92 0.90 83 1013.2
20260901230051 79 29 0.0 1.0 0.00 0.92 0.90 82 1012.8
20260901224548 80 29 0.0 2.0 0.00 0.95 0.90 81 1013.0
20260901223050 80 29 0.0 1.0 0.00 0.95 0.90 80 1012.9
20260901221547 80 29 2.0 4.0 0.00 0.95 0.90 78 1012.8
20260901220048 80 29 1.0 3.0 0.00 0.95 0.90 78 1013.1
20260901214547 80 29 0.0 4.0 0.00 0.97 0.90 79 1013.0
20260901213108 80 29 2.0 5.0 0.00 0.97 0.90 79 1012.9